Retour au catalogue

STARLINK-30603

ActifCommunicationsVLEO
NORAD 58080·PAYLOAD·🇺🇸 United States

Lancé Oct 18, 2023 depuis Cape Canaveral Space Force Station

Loading…

Prochains Passages (prochaines 24 heures)

TLE

FraisSource: CelesTrak SupGP

Époque: Sep 15, 2026, 01:46 UTC

1 58080C 23160F   26258.07409722  .00026670  00000+0  96583-3 0  2589
2 58080  43.0007  88.3667 0001402 272.3756 297.9114 15.27570706    18

Suivez STARLINK-30603 en temps réel avec AllMySat

Download on the App Store